CZ-4B DEB, 44589

Orbit data source: Space-Track

CZ-4B DEB, 44589 is space debris in SSO originally from a launch on Thu, 14 Oct 1999 UTC launched from the Taiyaun Space Center, China (TSC). Debris objects in space refer to the collection of defunct objects orbiting the Earth. Examples of debris include non-operational satellites, rocket bodies, and fragments generated from explosions, collisions, or faulty payload assembly.

Loading next visibility...
Identifier
44589, 1999-057TB
Orbit
SSO
Last TLE update
2 days ago
Origin
Manufacturer
Unknown
Mission
Spacecraft
Bus & Motor
Unknown
Mass
Unknown
Launch date (UTC)
1999-10-14 (26 years ago)
Launch vehicle
Unknown
Launch site
Taiyaun Space Center, China (TSC)
Object type
Payload
Rocket body
Debris
Shape & HBR
Unknown
Radar Cross Section
Small (<0.1 m²)

Expand to show TLE details & history

TLE from 2 days ago
0 CZ-4B DEB
1 44589U 99057TB  25184.80385639  .00000405  00000-0  65023-4 0  9991
2 44589  98.8182  28.7179 0083549  32.2165 328.4107 14.75812170624261
Epoch: 2025-07-03T19:17Z
TLE epoch observation values (Epoch: 2025-07-03T19:17:33.192Z)
Latitude
-0°
Longitude
177.26424°
Altitude
595.721 km
Speed
7.589 km/s
True Right ascension
01h 54m 52s
True Declination
0° 00' 00"
Sunlit
Object was in daylight at epoch
Visualization orbit readout
Latitude
-57.21034°
Longitude
-14.47618°
Altitude
714.356 km
Speed
7.471 km/s
Apparent Right ascension
15h 49m 03s
Apparent Declination
-54° 26' 29"
Sunlit
Object is in daylight
Visualization observer readout
Local Sidereal Time
05:51:12
Azimuth
135.68° SSE
Elevation
-64.982°
Doppler factor
1
Orbital elements
Apogee altitude
698.297 km
Perigee altitude
581.031 km
Semi-major axis
7,017.801 km
Eccentricity
0.00835
Inclination
98.8182°
RAAN
28.7179°
Arg. of periapsis
32.2165°
True anomaly
Unknown
Mean anomaly
328.4107°
Eccentric anomaly
Unknown
Mean motion
3.69183 °/min
Orbital period
97.51 mins
BSTAR
0.000065023
Loading maneuver chart data...
Loading SW <> Apogee altitude chart data...
Loading historical data...
Loading historical data...
Loading historical data...
Loading historical data...
Loading historical data...
Loading historical data...
Loading historical data...

CZ-4B DEB Visibility forecast

Observer location: undefined°, undefined°

Span
Click to sort rows by Start time (UTC) header in descending order
Start Az.
Max El. time (UTC)
Max El. Az.
Max El.
End time (UTC)
End Az.
6 mins2025-07-06 01:34:45.108Z54.498° ENE2025-07-06 01:37:45.108Z102.523° ESE19.178°2025-07-06 01:40:45.108Z143.506° SSE
6 mins2025-07-06 03:11:45.108Z339.888° N2025-07-06 03:13:45.108Z294.15° NW30.937°2025-07-06 03:17:45.108Z225.25° WSW
5 mins2025-07-06 14:08:45.108Z208.29° SW2025-07-06 14:10:45.108Z258.266° W30.631°2025-07-06 14:13:45.108Z322.534° NNW
|